[[{"header":{"parameterUnit":"m.s-1","parameterCategory":2,"la1":30.2991,"la2":30.254,"lo1":-89.0895,"lo2":-89.0444,"dy":0.0017,"dx":0.0017,"nx":28,"ny":28,"refTime":"2024-07-07T09:00:00:Z","depth":"0","parameterNumber":2,"parameterNumberName":"U-component_of_CURRENTS"},"data":[0,0,0,0,0,0,0,0,0,0,0,0,0,0,0,0,0,0,0,0,0,0,0,0,0,0,0,0,0,0,0,0,0,0,0,0,0,0,0,0,0,0,0,0,0,0,0,0,0,0,0,0,0,0,0,0,0,0,-0.2781,-0.2781,0,-0.2736,-0.2735,-0.2734,-0.2662,-0.2661,-0.2659,-0.2658,-0.2553,-0.2552,-0.255,0,0,0,0,0,0,0,0,0,0,0,0,0,-0.2828,-0.2827,-0.2781,-0.2781,-0.278,-0.2736,-0.2735,-0.2734,-0.2662,-0.2661,-0.2659,-0.2658,-0.2554,-0.2552,-0.255,0,0,0,0,0,0,0,0,0,0,0,0,0,-0.2797,-0.2827,-0.2782,-0.274,-0.2735,-0.2736,-0.2735,-0.2734,-0.2662,-0.2661,-0.2659,-0.2657,-0.2554,-0.2552,-0.255,-0.2572,0,0,-0.2542,-0.2541,0,0,0,0,0,0,0,0,-0.2799,-0.2795,-0.2746,-0.2742,-0.2738,-0.2703,-0.2713,-0.2677,-0.2663,-0.2689,-0.2658,-0.2656,-0.26,-0.2593,-0.2589,-0.2567,-0.2562,-0.2542,-0.254,-0.2539,-0.2539,0,0,0,0,0,0,0,-0.2801,-0.2797,-0.2763,-0.2746,-0.2741,-0.273,-0.2724,-0.2706,-0.2654,-0.2687,-0.2682,-0.2678,-0.2597,-0.2591,-0.2586,-0.2561,-0.2542,-0.254,-0.2538,-0.2537,-0.2571,-0.2573,0,0,0,0,0,0,-0.2809,-0.2799,-0.2764,-0.2761,-0.2765,-0.2731,-0.2723,-0.2716,-0.2655,-0.2645,-0.268,-0.2675,-0.2597,-0.2589,-0.2582,-0.2607,-0.2539,-0.2537,-0.2536,-0.2569,-0.2571,-0.2574,0,0,0,0,0,0,-0.281,-0.2806,-0.2766,-0.278,-0.2774,-0.2732,-0.2724,-0.2716,-0.2695,-0.2651,-0.2639,-0.2666,-0.2595,-0.2585,-0.2568,-0.2602,-0.2536,-0.2534,-0.2566,-0.257,-0.2573,-0.2655,0,0,0,0,0,0,-0.2811,-0.2807,-0.2797,-0.278,-0.2773,-0.277,-0.2726,-0.2716,-0.2697,-0.269,-0.2636,-0.2625,-0.2593,-0.2572,-0.2566,-0.2597,-0.2532,-0.2563,-0.2567,-0.2572,-0.2649,-0.2661,-0.2671,0,0,0,0,0,-0.2813,-0.2807,-0.2797,-0.2792,-0.2763,-0.2771,-0.2767,-0.273,-0.2699,-0.2702,-0.2666,-0.2626,-0.2596,-0.2572,-0.2564,-0.2595,-0.2561,-0.2566,-0.2571,-0.2645,-0.2659,-0.2671,0,0,0,0,0,0,-0.2809,-0.2799,-0.2787,-0.2773,-0.2776,-0.2759,-0.275,-0.2732,-0.2707,-0.2691,-0.2643,-0.2631,-0.264,-0.2609,-0.2583,-0.2623,-0.2578,-0.2582,-0.2637,-0.2649,-0.266,-0.2647,-0.253,0,0,0,0,0,-0.281,-0.2807,-0.2802,-0.2792,-0.2792,-0.2773,-0.2766,-0.2751,-0.2731,-0.2716,-0.2684,-0.2659,-0.2662,-0.2644,-0.264,-0.2645,-0.26,-0.2668,-0.2678,-0.2687,-0.2675,-0.2633,-0.2638,-0.2592,-0.2591,-0.2591,0,0,-0.2802,-0.2799,-0.2792,-0.2792,-0.2783,-0.2795,-0.2763,-0.276,-0.2771,-0.271,-0.2704,-0.2696,-0.2676,-0.2694,-0.2695,-0.2663,-0.2686,-0.2694,-0.2702,-0.2684,-0.2639,-0.2643,-0.2646,-0.2595,-0.2594,-0.2594,0,0,-0.2794,-0.2788,-0.2783,-0.2796,-0.2797,-0.2803,-0.2805,-0.2797,-0.2791,-0.2797,-0.2772,-0.2781,-0.2759,-0.2765,-0.2762,-0.283,-0.2753,-0.2832,-0.2858,-0.2819,-0.2821,-0.2822,-0.2797,-0.2795,-0.2825,-0.2826,-0.2826,0,-0.2775,-0.2775,-0.2784,-0.2794,-0.28,-0.2809,-0.2815,-0.2831,-0.2821,-0.2818,-0.2804,-0.2802,-0.28,-0.282,-0.2856,-0.2854,-0.2807,-0.2806,-0.2829,-0.2829,-0.2829,-0.2802,-0.2799,-0.283,-0.283,-0.2829,-0.2829,0,-0.2768,-0.2774,-0.2777,-0.2796,-0.2815,-0.2825,-0.2857,-0.2876,-0.2875,-0.2876,-0.2893,-0.2895,-0.2884,-0.2911,-0.2903,-0.2918,-0.288,-0.2854,-0.2787,-0.2838,-0.2808,-0.2803,-0.2837,-0.2835,-0.2834,-0.2833,0,0,-0.269,-0.2755,-0.2753,-0.2765,-0.2814,-0.2824,-0.2875,-0.2904,-0.2912,-0.293,-0.2925,-0.2977,-0.2962,-0.2961,-0.2961,-0.2941,-0.2939,-0.2894,-0.289,-0.2853,-0.2841,-0.2605,-0.2577,-0.2891,-0.289,-0.289,-0.2829,0,-0.2666,-0.2689,-0.2735,-0.2762,-0.277,-0.2828,-0.2867,-0.2905,-0.2931,-0.2942,-0.2963,-0.2963,-0.2986,-0.2975,-0.2972,-0.2939,-0.2924,-0.2957,-0.281,-0.2806,-0.2575,-0.2562,-0.2424,-0.2337,-0.2824,-0.2823,-0.2822,0,-0.2617,-0.2647,-0.2663,-0.2734,-0.2742,-0.277,-0.2822,-0.2863,-0.2913,-0.2925,-0.2942,-0.2947,-0.2963,-0.2958,-0.2921,-0.2926,-0.2896,-0.2869,-0.2864,-0.26,-0.2558,-0.2361,-0.2309,-0.2339,-0.2814,-0.2815,-0.2815,0,-0.2517,-0.2588,-0.2598,-0.2619,-0.2705,-0.2724,-0.2773,-0.2835,-0.2857,-0.2899,-0.2899,-0.2917,-0.29,-0.2875,-0.284,-0.287,-0.2755,-0.2792,-0.2559,-0.2544,-0.2373,-0.2341,-0.2307,-0.2751,-0.2751,-0.2751,-0.2752,0,-0.2442,-0.2444,-0.2553,-0.2547,-0.256,-0.2653,-0.2665,-0.272,-0.2784,-0.2788,-0.2866,-0.2855,-0.2867,-0.2815,-0.2805,-0.2628,-0.2725,-0.2538,-0.2491,-0.24,-0.2372,-0.2343,-0.2409,-0.2749,-0.275,-0.275,-0.275,0,-0.2283,-0.2365,-0.2371,-0.2468,-0.2497,-0.2493,-0.2585,-0.2597,-0.2685,-0.2693,-0.27,-0.2771,-0.269,-0.2668,-0.2602,-0.2532,-0.2366,-0.2347,-0.2234,-0.217,-0.1942,-0.2017,-0.1889,-0.1838,-0.2082,-0.2076,-0.207,0,-0.2186,-0.2178,-0.2267,-0.2272,-0.2304,-0.2342,-0.2364,-0.2497,-0.2523,-0.263,-0.2613,-0.2577,-0.2542,-0.2347,-0.2171,-0.2028,-0.2126,-0.1814,-0.184,-0.1867,-0.1922,-0.2008,-0.1986,-0.1695,-0.1687,-0.168,-0.1675,0,-0.1989,-0.2028,-0.2044,-0.2065,-0.209,-0.2128,-0.2189,-0.2216,-0.2365,-0.2403,-0.2433,-0.243,-0.2234,-0.1968,-0.1724,-0.1667,-0.1757,-0.1663,-0.1737,-0.1618,-0.1668,-0.1616,-0.1836,-0.1616,-0.1622,-0.1626,-0.1629,-0.1632,-0.1818,-0.1788,-0.1825,-0.1833,-0.1873,-0.1903,-0.1888,-0.1991,-0.2035,-0.2066,-0.2177,-0.206,-0.1766,-0.139,-0.1371,-0.1134,-0.1292,-0.1119,-0.1217,-0.131,-0.1209,-0.1261,-0.0939,-0.0941,-0.0943,-0.0944,-0.0946,0,-0.1595,-0.1599,-0.1595,-0.1613,-0.1592,-0.1683,-0.1748,-0.1725,-0.1734,-0.1741,-0.1741,-0.1362,-0.1135,-0.097,-0.0683,-0.071,-0.0817,-0.0772,-0.0956,-0.096,-0.1034,-0.0962,-0.057,-0.057,-0.057,-0.057,-0.057,-0.057,-0.1468,-0.1396,-0.1415,-0.133,-0.1345,-0.1277,-0.1287,-0.1292,-0.1271,-0.1089,-0.087,-0.077,-0.0555,-0.0581,-0.0607,-0.0638,-0.0765,-0.0706,-0.0819,-0.0986,-0.1031,-0.1075,-0.1023,-0.065,-0.0651,-0.07,-0.0701,-0.0701]},{"header":{"parameterUnit":"m.s-1","parameterCategory":2,"la1":30.2991,"la2":30.254,"lo1":-89.0895,"lo2":-89.0444,"dy":0.0017,"dx":0.0017,"nx":28,"ny":28,"refTime":"2024-07-07T09:00:00:Z","depth":"0","parameterNumber":3,"parameterNumberName":"V-component_of_CURRENTS"},"data":[0,0,0,0,0,0,0,0,0,0,0,0,0,0,0,0,0,0,0,0,0,0,0,0,0,0,0,0,0,0,0,0,0,0,0,0,0,0,0,0,0,0,0,0,0,0,0,0,0,0,0,0,0,0,0,0,0,0,-0.1063,-0.1063,0,-0.1012,-0.1011,-0.1011,-0.0946,-0.0945,-0.0944,-0.0943,-0.0827,-0.0825,-0.0823,0,0,0,0,0,0,0,0,0,0,0,0,0,-0.1012,-0.1014,-0.1063,-0.1063,-0.1062,-0.1012,-0.1011,-0.1011,-0.0947,-0.0945,-0.0944,-0.0942,-0.0828,-0.0825,-0.0823,0,0,0,0,0,0,0,0,0,0,0,0,0,-0.1007,-0.1015,-0.1064,-0.1022,-0.1018,-0.1012,-0.1011,-0.1011,-0.0947,-0.0945,-0.0943,-0.0942,-0.0828,-0.0825,-0.0823,-0.084,0,0,-0.0813,-0.0812,0,0,0,0,0,0,0,0,-0.1007,-0.1009,-0.1029,-0.1025,-0.102,-0.0982,-0.095,-0.095,-0.0947,-0.0976,-0.0943,-0.0941,-0.0873,-0.0866,-0.0864,-0.0834,-0.0829,-0.0813,-0.0811,-0.081,-0.0809,0,0,0,0,0,0,0,-0.1008,-0.101,-0.1045,-0.1029,-0.1023,-0.0974,-0.0972,-0.095,-0.0935,-0.0973,-0.0968,-0.096,-0.087,-0.0867,-0.0861,-0.0828,-0.0813,-0.0811,-0.0809,-0.0808,-0.0789,-0.079,0,0,0,0,0,0,-0.1018,-0.1012,-0.1046,-0.1043,-0.1007,-0.0977,-0.0975,-0.0998,-0.0937,-0.0926,-0.0962,-0.0957,-0.0873,-0.0864,-0.0856,-0.0854,-0.081,-0.0807,-0.0806,-0.0788,-0.0789,-0.0791,0,0,0,0,0,0,-0.1018,-0.1023,-0.1048,-0.1022,-0.1022,-0.098,-0.1006,-0.0998,-0.0992,-0.0928,-0.0916,-0.0963,-0.0871,-0.086,-0.0842,-0.0849,-0.0806,-0.0803,-0.0786,-0.0788,-0.079,-0.0861,0,0,0,0,0,0,-0.1017,-0.1024,-0.1044,-0.1025,-0.1024,-0.1065,-0.1007,-0.0998,-0.0989,-0.0982,-0.0926,-0.0913,-0.0869,-0.0847,-0.0839,-0.0844,-0.0801,-0.0785,-0.0787,-0.0789,-0.0857,-0.0865,-0.0872,0,0,0,0,0,-0.1016,-0.1056,-0.1046,-0.1049,-0.1054,-0.1067,-0.1064,-0.1026,-0.0991,-0.101,-0.096,-0.0915,-0.0856,-0.0846,-0.0837,-0.0841,-0.0783,-0.0786,-0.0789,-0.0853,-0.0863,-0.0872,0,0,0,0,0,0,-0.1039,-0.1052,-0.1041,-0.1082,-0.1081,-0.1055,-0.1059,-0.1037,-0.1015,-0.0999,-0.0934,-0.092,-0.0901,-0.0874,-0.0864,-0.0845,-0.0812,-0.0813,-0.0864,-0.0873,-0.088,-0.0903,-0.0799,0,0,0,0,0,-0.1057,-0.1094,-0.1089,-0.1121,-0.1121,-0.1093,-0.1089,-0.1072,-0.1047,-0.1035,-0.099,-0.0944,-0.091,-0.0893,-0.0861,-0.086,-0.083,-0.0857,-0.0865,-0.0871,-0.0885,-0.0888,-0.0897,-0.08,-0.08,-0.08,0,0,-0.1067,-0.1083,-0.1099,-0.1128,-0.1117,-0.114,-0.1087,-0.1096,-0.1108,-0.1026,-0.102,-0.0968,-0.0915,-0.0903,-0.0894,-0.0879,-0.0873,-0.0875,-0.088,-0.0891,-0.0892,-0.0902,-0.091,-0.0802,-0.0802,-0.0801,0,0,-0.1115,-0.1129,-0.1171,-0.1185,-0.1189,-0.1177,-0.1185,-0.1167,-0.115,-0.1148,-0.108,-0.1041,-0.1,-0.0959,-0.0933,-0.097,-0.091,-0.0956,-0.1013,-0.1016,-0.1024,-0.1031,-0.0958,-0.0958,-0.0963,-0.0963,-0.0964,0,-0.1123,-0.119,-0.1183,-0.1228,-0.1245,-0.12,-0.1246,-0.1229,-0.1205,-0.1197,-0.1158,-0.1091,-0.1027,-0.1015,-0.1007,-0.0985,-0.0959,-0.0979,-0.1026,-0.1032,-0.1038,-0.0962,-0.0961,-0.0967,-0.0967,-0.0966,-0.0966,0,-0.1201,-0.1253,-0.1278,-0.1325,-0.1344,-0.1379,-0.136,-0.1363,-0.1326,-0.1296,-0.1274,-0.1198,-0.1158,-0.1125,-0.1065,-0.1074,-0.1028,-0.1031,-0.1003,-0.1052,-0.0968,-0.0966,-0.0973,-0.0971,-0.097,-0.0969,0,0,-0.1221,-0.1316,-0.1326,-0.1374,-0.1405,-0.1431,-0.1455,-0.1466,-0.1471,-0.1427,-0.1435,-0.1348,-0.129,-0.1259,-0.1186,-0.1171,-0.1141,-0.1118,-0.1117,-0.1044,-0.11,-0.0871,-0.0846,-0.1165,-0.1166,-0.1167,-0.1007,0,-0.1281,-0.14,-0.1428,-0.1523,-0.1578,-0.157,-0.1604,-0.1601,-0.1562,-0.1549,-0.1471,-0.1436,-0.1348,-0.1317,-0.1292,-0.1192,-0.1148,-0.1181,-0.1065,-0.106,-0.0851,-0.0841,-0.0713,-0.0545,-0.1004,-0.1004,-0.1004,0,-0.1348,-0.1425,-0.1542,-0.1646,-0.1666,-0.171,-0.1753,-0.1774,-0.1736,-0.1705,-0.1661,-0.1579,-0.152,-0.1447,-0.1325,-0.1356,-0.1228,-0.1146,-0.1139,-0.0906,-0.0829,-0.058,-0.0523,-0.0342,-0.0999,-0.1,-0.1,0,-0.1377,-0.1504,-0.1606,-0.1642,-0.1739,-0.1785,-0.1821,-0.1816,-0.1826,-0.179,-0.1782,-0.1707,-0.166,-0.1552,-0.1318,-0.1344,-0.1164,-0.1185,-0.0854,-0.0834,-0.069,-0.0654,-0.0446,-0.1099,-0.1099,-0.11,-0.11,0,-0.144,-0.1515,-0.163,-0.1685,-0.1788,-0.184,-0.1909,-0.1921,-0.193,-0.1936,-0.1858,-0.1839,-0.1691,-0.1544,-0.1362,-0.1059,-0.1192,-0.0844,-0.0785,-0.07,-0.067,-0.0476,-0.0462,-0.1093,-0.1095,-0.1096,-0.1097,0,-0.1439,-0.1528,-0.1638,-0.1765,-0.1805,-0.1869,-0.1962,-0.1995,-0.2013,-0.2023,-0.2017,-0.1935,-0.1744,-0.1515,-0.1292,-0.108,-0.0684,-0.0688,-0.0539,-0.0463,0.0006,0.0009,0.0242,0.0374,-0.0336,-0.033,-0.0324,0,-0.1441,-0.1506,-0.1664,-0.1724,-0.1779,-0.188,-0.1943,-0.2013,-0.204,-0.2066,-0.2068,-0.1908,-0.1769,-0.1319,-0.0905,-0.0503,-0.0415,-0.0123,-0.0145,0.0085,0.0127,0.01,0.0187,0.0028,0.0036,0.0042,0.0047,0,-0.1411,-0.1471,-0.1557,-0.1691,-0.1783,-0.1891,-0.1986,-0.2032,-0.2104,-0.2118,-0.2091,-0.1998,-0.154,-0.104,-0.0458,-0.0208,0.0033,0.0028,0.0179,0.0381,0.044,0.0579,-0.0088,0.0105,0.0099,0.0095,0.0092,0.009,-0.1338,-0.139,-0.1504,-0.1623,-0.1745,-0.1867,-0.1922,-0.2003,-0.2059,-0.203,-0.2026,-0.1783,-0.1114,-0.0297,-0.0025,0.0684,0.0497,0.0849,0.0825,0.0771,0.093,0.0462,0.0774,0.0772,0.0771,0.0769,0.0768,0,-0.121,-0.13,-0.1419,-0.1574,-0.1686,-0.1773,-0.1912,-0.1925,-0.1946,-0.1845,-0.1763,-0.1043,-0.0363,0.0273,0.1201,0.1464,0.1437,0.1557,0.1487,0.153,0.1062,0.1116,0.1622,0.1622,0.1622,0.1621,0.1621,0.1621,-0.1134,-0.1204,-0.13,-0.1456,-0.1569,-0.1669,-0.1729,-0.174,-0.1655,-0.1327,-0.0922,-0.0611,0.0287,0.1266,0.1991,0.2052,0.2142,0.2119,0.2154,0.1773,0.1701,0.1633,0.1693,0.231,0.2311,0.2647,0.265,0.2652]}],[{"header":{"parameterUnit":"m.s-1","parameterCategory":2,"la1":30.2991,"la2":30.254,"lo1":-89.0895,"lo2":-89.0444,"dy":0.0017,"dx":0.0017,"nx":28,"ny":28,"refTime":"2024-07-07T09:00:00:Z","depth":"2","parameterNumber":2,"parameterNumberName":"U-component_of_CURRENTS"},"data":[0,0,0,0,0,0,0,0,0,0,0,0,0,0,0,0,0,0,0,0,0,0,0,0,0,0,0,0,0,0,0,0,0,0,0,0,0,0,0,0,0,0,0,0,0,0,0,0,0,0,0,0,0,0,0,0,0,0,-0.2468,-0.247,0,-0.252,-0.2519,-0.2518,-0.2603,-0.2606,-0.2609,-0.2612,-0.2765,-0.2766,-0.2767,0,0,0,0,0,0,0,0,0,0,0,0,0,-0.2283,-0.2285,-0.2467,-0.247,-0.2472,-0.252,-0.2519,-0.2518,-0.2602,-0.2606,-0.261,-0.2614,-0.2765,-0.2766,-0.2767,0,0,0,0,0,0,0,0,0,0,0,0,0,-0.2333,-0.2286,-0.2467,-0.2535,-0.2543,-0.2521,-0.2519,-0.2518,-0.2601,-0.2606,-0.2611,-0.2616,-0.2765,-0.2766,-0.2767,-0.2676,0,0,-0.2772,-0.2772,0,0,0,0,0,0,0,0,-0.233,-0.2338,-0.2522,-0.253,-0.2539,-0.2577,-0.2511,-0.2582,-0.26,-0.2558,-0.2613,-0.2618,-0.2721,-0.2726,-0.2695,-0.2683,-0.269,-0.2772,-0.2773,-0.2773,-0.2774,0,0,0,0,0,0,0,-0.2327,-0.2335,-0.2468,-0.2525,-0.2535,-0.251,-0.2522,-0.2522,-0.2597,-0.2562,-0.2573,-0.2609,-0.2724,-0.2693,-0.27,-0.2692,-0.2772,-0.2773,-0.2774,-0.2774,-0.2742,-0.274,0,0,0,0,0,0,-0.2363,-0.2332,-0.2467,-0.2472,-0.2467,-0.2511,-0.2524,-0.2544,-0.2595,-0.2613,-0.2605,-0.2613,-0.2688,-0.2698,-0.2706,-0.2701,-0.2773,-0.2775,-0.2775,-0.2743,-0.2741,-0.274,0,0,0,0,0,0,-0.2358,-0.2373,-0.2465,-0.242,-0.2433,-0.2513,-0.2532,-0.2543,-0.2538,-0.263,-0.2647,-0.2596,-0.2693,-0.2704,-0.2738,-0.2706,-0.2775,-0.2777,-0.2746,-0.2743,-0.274,-0.2629,0,0,0,0,0,0,-0.2352,-0.237,-0.2373,-0.2422,-0.2438,-0.2475,-0.253,-0.2541,-0.2561,-0.2572,-0.2627,-0.2645,-0.2698,-0.2735,-0.2739,-0.2709,-0.2778,-0.2748,-0.2744,-0.2741,-0.2635,-0.2623,-0.2613,0,0,0,0,0,-0.2345,-0.235,-0.2372,-0.2389,-0.2446,-0.2476,-0.2477,-0.2538,-0.2556,-0.2547,-0.2594,-0.2645,-0.2718,-0.2735,-0.274,-0.2709,-0.2749,-0.2745,-0.2742,-0.264,-0.2625,-0.2613,0,0,0,0,0,0,-0.228,-0.2362,-0.2387,-0.2419,-0.2455,-0.2499,-0.2503,-0.2522,-0.2536,-0.2559,-0.2619,-0.2638,-0.2666,-0.2688,-0.2705,-0.269,-0.2741,-0.2738,-0.2662,-0.2649,-0.2638,-0.2664,-0.2779,0,0,0,0,0,-0.2264,-0.2287,-0.2356,-0.2379,-0.2396,-0.2431,-0.2444,-0.2486,-0.2525,-0.2534,-0.258,-0.2618,-0.2638,-0.265,-0.2689,-0.2655,-0.2706,-0.264,-0.2629,-0.2619,-0.2643,-0.2678,-0.2673,-0.2727,-0.2727,-0.2727,0,0,-0.2244,-0.2298,-0.2309,-0.2365,-0.2389,-0.2395,-0.2446,-0.2479,-0.2483,-0.2548,-0.2558,-0.2595,-0.2628,-0.2625,-0.2633,-0.2645,-0.2623,-0.2614,-0.2606,-0.2636,-0.2674,-0.2669,-0.2665,-0.2724,-0.2725,-0.2725,0,0,-0.2214,-0.2261,-0.2259,-0.2286,-0.2349,-0.2374,-0.2383,-0.2429,-0.245,-0.2454,-0.2511,-0.2524,-0.2545,-0.2563,-0.2568,-0.2505,-0.2581,-0.2513,-0.2456,-0.2488,-0.2485,-0.2482,-0.2512,-0.2513,-0.2485,-0.2485,-0.2484,0,-0.2189,-0.2209,-0.226,-0.2266,-0.23,-0.236,-0.2362,-0.2366,-0.2421,-0.2443,-0.2465,-0.2497,-0.2511,-0.2503,-0.2479,-0.248,-0.2525,-0.2501,-0.2475,-0.2474,-0.2474,-0.2505,-0.2508,-0.2479,-0.2479,-0.248,-0.2481,0,-0.2148,-0.217,-0.2175,-0.2205,-0.2229,-0.2253,-0.2299,-0.2319,-0.2349,-0.2372,-0.2401,-0.2411,-0.2441,-0.2415,-0.242,-0.2411,-0.2452,-0.2474,-0.2511,-0.2462,-0.2497,-0.2502,-0.247,-0.2473,-0.2474,-0.2476,0,0,-0.2092,-0.2137,-0.2141,-0.216,-0.2214,-0.2239,-0.2247,-0.2287,-0.2311,-0.2329,-0.2355,-0.2327,-0.2361,-0.2369,-0.2374,-0.2367,-0.2358,-0.2407,-0.2412,-0.2442,-0.2444,-0.2233,-0.2219,-0.2388,-0.2389,-0.2389,-0.2459,0,-0.2051,-0.2057,-0.2092,-0.2105,-0.2117,-0.2187,-0.2196,-0.2242,-0.228,-0.2318,-0.2326,-0.2356,-0.2333,-0.2348,-0.2332,-0.24,-0.2374,-0.2339,-0.2485,-0.249,-0.2312,-0.2218,-0.2047,-0.2074,-0.2465,-0.2466,-0.2467,0,-0.1999,-0.2023,-0.2024,-0.2094,-0.2106,-0.2113,-0.2189,-0.2209,-0.227,-0.2305,-0.2332,-0.2374,-0.2384,-0.236,-0.2417,-0.2411,-0.2408,-0.2426,-0.243,-0.2286,-0.2287,-0.2192,-0.207,-0.2477,-0.2476,-0.2475,-0.2474,0,-0.1951,-0.1986,-0.1997,-0.2014,-0.2079,-0.21,-0.2138,-0.2201,-0.2245,-0.231,-0.2352,-0.2395,-0.2439,-0.2457,-0.2439,-0.2471,-0.2485,-0.2543,-0.2341,-0.2329,-0.2237,-0.2211,-0.2541,-0.2541,-0.2541,-0.2541,-0.2541,0,-0.1915,-0.1928,-0.1974,-0.1982,-0.2013,-0.2069,-0.2108,-0.2163,-0.2239,-0.2286,-0.2341,-0.2355,-0.2471,-0.2477,-0.2463,-0.2383,-0.2499,-0.2319,-0.2317,-0.2184,-0.2154,-0.2562,-0.2563,-0.2544,-0.2543,-0.2542,-0.2542,0,-0.1866,-0.1894,-0.1912,-0.1968,-0.1989,-0.201,-0.2095,-0.2121,-0.2208,-0.2273,-0.2303,-0.2388,-0.239,-0.2413,-0.2454,-0.24,-0.2351,-0.2268,-0.2082,-0.2051,-0.2196,-0.2192,-0.215,-0.2143,-0.2137,-0.2132,-0.2128,0,-0.1843,-0.1841,-0.1889,-0.1892,-0.1914,-0.1955,-0.198,-0.2089,-0.2109,-0.2244,-0.2247,-0.2304,-0.2241,-0.2186,-0.2114,-0.2041,-0.2139,-0.1842,-0.1833,-0.2145,-0.215,-0.2155,-0.2158,-0.1694,-0.1687,-0.1681,-0.1676,0,-0.1795,-0.1805,-0.1815,-0.1825,-0.1842,-0.1874,-0.1907,-0.1921,-0.2043,-0.2092,-0.2068,-0.2039,-0.1976,-0.1805,-0.1713,-0.1646,-0.1852,-0.171,-0.2105,-0.1769,-0.1706,-0.1713,-0.1734,-0.1621,-0.1626,-0.163,-0.1633,-0.1636,-0.1748,-0.1737,-0.1739,-0.174,-0.1762,-0.1749,-0.1739,-0.1749,-0.177,-0.1779,-0.1815,-0.1699,-0.1713,-0.1441,-0.1333,-0.1269,-0.1427,-0.1413,-0.1438,-0.1468,-0.1351,-0.1274,-0.1091,-0.1093,-0.1095,-0.1097,-0.1098,0,-0.1673,-0.1661,-0.1652,-0.1632,-0.1593,-0.1684,-0.1664,-0.1591,-0.1525,-0.152,-0.145,-0.1247,-0.1112,-0.1102,-0.0913,-0.0877,-0.094,-0.0848,-0.0963,-0.1014,-0.106,-0.093,-0.0554,-0.0553,-0.0552,-0.0551,0,0,-0.1631,-0.1583,-0.1568,-0.1465,-0.1473,-0.1454,-0.1435,-0.13,-0.1225,-0.1046,-0.0977,-0.1028,-0.1051,-0.0823,-0.0766,-0.063,-0.0825,-0.0582,-0.1011,-0.1197,-0.1242,-0.1364,-0.1214,0,0,0,0,0]},{"header":{"parameterUnit":"m.s-1","parameterCategory":2,"la1":30.2991,"la2":30.254,"lo1":-89.0895,"lo2":-89.0444,"dy":0.0017,"dx":0.0017,"nx":28,"ny":28,"refTime":"2024-07-07T09:00:00:Z","depth":"2","parameterNumber":3,"parameterNumberName":"V-component_of_CURRENTS"},"data":[0,0,0,0,0,0,0,0,0,0,0,0,0,0,0,0,0,0,0,0,0,0,0,0,0,0,0,0,0,0,0,0,0,0,0,0,0,0,0,0,0,0,0,0,0,0,0,0,0,0,0,0,0,0,0,0,0,0,-0.0322,-0.0321,0,-0.0219,-0.0218,-0.0217,-0.0111,-0.011,-0.0108,-0.0107,0.0155,0.016,0.0166,0,0,0,0,0,0,0,0,0,0,0,0,0,-0.0405,-0.0404,-0.0322,-0.0321,-0.0319,-0.0219,-0.0218,-0.0216,-0.0111,-0.011,-0.0108,-0.0106,0.0153,0.016,0.0166,0,0,0,0,0,0,0,0,0,0,0,0,0,-0.0342,-0.0404,-0.0322,-0.0255,-0.0249,-0.022,-0.0218,-0.0216,-0.0112,-0.011,-0.0107,-0.0106,0.0151,0.0159,0.0167,0.0178,0,0,0.0193,0.0197,0,0,0,0,0,0,0,0,-0.0345,-0.0339,-0.0266,-0.026,-0.0252,-0.0176,-0.0151,-0.0076,-0.0112,-0.0163,-0.0107,-0.0105,0.0057,0.0073,0.0087,0.0191,0.0202,0.0194,0.0199,0.0203,0.0205,0,0,0,0,0,0,0,-0.035,-0.0342,-0.028,-0.0265,-0.0257,-0.0223,-0.0212,-0.0137,-0.0062,-0.0158,-0.0151,-0.0141,0.0062,0.0078,0.0094,0.0206,0.0194,0.0201,0.0207,0.021,0.0443,0.0444,0,0,0,0,0,0,-0.0367,-0.0347,-0.0284,-0.0277,-0.0295,-0.0223,-0.0211,-0.0202,-0.0066,-0.0045,-0.0143,-0.0136,0.0062,0.0084,0.0104,0.0175,0.0203,0.0211,0.0216,0.0442,0.0443,0.0445,0,0,0,0,0,0,-0.037,-0.0363,-0.0288,-0.031,-0.0298,-0.0224,-0.0215,-0.0201,-0.0181,-0.0057,-0.0032,-0.0137,0.0065,0.0092,0.017,0.0184,0.0215,0.0222,0.0441,0.0443,0.0444,0.0285,0,0,0,0,0,0,-0.0373,-0.0365,-0.0371,-0.0312,-0.0298,-0.0264,-0.0217,-0.0201,-0.0179,-0.017,-0.0043,-0.0017,0.0068,0.0156,0.0178,0.0196,0.0229,0.044,0.0442,0.0444,0.0289,0.0281,0.0275,0,0,0,0,0,-0.0376,-0.038,-0.0372,-0.0365,-0.0307,-0.0264,-0.0254,-0.0194,-0.0181,-0.017,-0.0094,-0.0021,0.0187,0.0162,0.0189,0.021,0.0439,0.0441,0.0443,0.0293,0.0283,0.0275,0,0,0,0,0,0,-0.041,-0.0369,-0.0358,-0.0348,-0.0312,-0.0246,-0.0233,-0.0209,-0.0147,-0.0135,-0.0028,0.0003,0.0094,0.0167,0.0137,0.0289,0.0334,0.0341,0.0211,0.0203,0.0195,0.0179,0.0236,0,0,0,0,0,-0.0429,-0.0427,-0.0377,-0.0373,-0.0357,-0.0307,-0.0288,-0.025,-0.0188,-0.016,-0.0075,0.0027,0.0121,0.0168,0.0274,0.0326,0.0407,0.0368,0.036,0.0353,0.0361,0.0454,0.0454,0.0453,0.0453,0.0453,0,0,-0.044,-0.0421,-0.0418,-0.0382,-0.035,-0.033,-0.0289,-0.0259,-0.0239,-0.0139,-0.0081,0.0008,0.0134,0.0213,0.026,0.0272,0.04,0.0356,0.0348,0.0361,0.0457,0.0456,0.0456,0.0454,0.0454,0.0454,0,0,-0.0459,-0.0447,-0.0448,-0.0426,-0.0388,-0.0354,-0.0353,-0.0292,-0.0257,-0.0206,-0.0115,-0.0041,0.0097,0.0179,0.024,0.0251,0.0367,0.0305,0.0239,0.0327,0.0327,0.0328,0.043,0.0441,0.0287,0.0287,0.0287,0,-0.0477,-0.0472,-0.0441,-0.0435,-0.0423,-0.0372,-0.0366,-0.0328,-0.0249,-0.022,-0.0193,-0.0005,0.0082,0.0176,0.0182,0.0232,0.0311,0.0247,0.0312,0.0315,0.0319,0.0424,0.0438,0.028,0.0281,0.0281,0.0282,0,-0.0489,-0.049,-0.0487,-0.0468,-0.0451,-0.0437,-0.0386,-0.0358,-0.0321,-0.0272,-0.0174,-0.0072,0.004,0.0079,0.0129,0.0207,0.0266,0.0293,0.0316,0.0308,0.0421,0.0439,0.0269,0.0272,0.0274,0.0276,0,0,-0.0514,-0.0501,-0.05,-0.0509,-0.0471,-0.046,-0.0431,-0.0383,-0.0364,-0.0282,-0.0237,-0.0112,-0.006,0.0013,0.0089,0.0148,0.0222,0.0216,0.0224,0.0288,0.044,0.0371,0.0385,0.0257,0.0259,0.0261,0.0506,0,-0.0532,-0.0546,-0.0526,-0.0539,-0.0541,-0.05,-0.0482,-0.0435,-0.0378,-0.0317,-0.0216,-0.013,-0.0082,-0.0037,0.0028,0.021,0.0265,0.0156,0.0468,0.0478,0.0391,0.04,0.0372,0.0578,0.0524,0.0527,0.0529,0,-0.0544,-0.0558,-0.0577,-0.0588,-0.0585,-0.0584,-0.0555,-0.0531,-0.0434,-0.0387,-0.0297,-0.0196,-0.0067,-0.0051,0.0217,0.0153,0.0274,0.0386,0.0398,0.0403,0.044,0.0584,0.0613,0.0561,0.0558,0.0556,0.0554,0,-0.0582,-0.0593,-0.0619,-0.062,-0.0616,-0.062,-0.0615,-0.0549,-0.0532,-0.0425,-0.0379,-0.0212,-0.009,0.007,0.0297,0.0273,0.0587,0.0589,0.0638,0.0637,0.071,0.0709,0.0734,0.0733,0.0733,0.0732,0.0731,0,-0.0607,-0.0628,-0.0644,-0.066,-0.0702,-0.0676,-0.069,-0.0658,-0.0596,-0.0543,-0.0422,-0.0313,-0.0053,0.0155,0.0313,0.0547,0.061,0.0639,0.0689,0.0653,0.0645,0.0708,0.0701,0.0741,0.0739,0.0737,0.0736,0,-0.0635,-0.064,-0.0682,-0.0705,-0.0721,-0.0751,-0.0769,-0.0767,-0.0695,-0.0615,-0.0579,-0.0333,-0.0032,0.0199,0.0528,0.0591,0.0794,0.0841,0.078,0.0814,0.0786,0.0769,0.0939,0.0938,0.0938,0.0937,0.0937,0,-0.0649,-0.0672,-0.0732,-0.0773,-0.0789,-0.0831,-0.0856,-0.0827,-0.0812,-0.0606,-0.056,-0.0256,-0.0002,0.0423,0.0611,0.0867,0.0864,0.0907,0.0813,0.0772,0.0805,0.0789,0.0774,0.0885,0.0884,0.0884,0.0883,0,-0.0687,-0.0708,-0.075,-0.0837,-0.0887,-0.0935,-0.0958,-0.0962,-0.0867,-0.0771,-0.0542,-0.0311,0.0136,0.0454,0.0734,0.0847,0.0854,0.0895,0.0935,0.0781,0.0725,0.0755,0.0742,0.0878,0.0878,0.0879,0.0879,0.0879,-0.0722,-0.0768,-0.083,-0.0909,-0.0968,-0.1015,-0.1033,-0.1012,-0.0965,-0.0757,-0.0518,-0.0152,0.0145,0.0575,0.0743,0.0851,0.0869,0.0866,0.0868,0.0871,0.0765,0.0704,0.0838,0.0838,0.0838,0.0838,0.0838,0,-0.0772,-0.0824,-0.0901,-0.099,-0.1055,-0.1072,-0.1081,-0.1065,-0.0982,-0.07,-0.044,-0.0116,0.0259,0.0549,0.0734,0.0823,0.0818,0.0807,0.0811,0.0816,0.0821,0.071,0.0771,0.0771,0.0771,0.0771,0,0,-0.0806,-0.0886,-0.0927,-0.1046,-0.1104,-0.116,-0.1155,-0.1089,-0.0907,-0.0652,-0.0377,0.0002,0.0348,0.0427,0.0592,0.0712,0.0717,0.0688,0.0736,0.0729,0.0731,0.0853,0.0688,0,0,0,0,0]}],[{"header":{"parameterUnit":"m.s-1","parameterCategory":2,"la1":30.2991,"la2":30.254,"lo1":-89.0895,"lo2":-89.0444,"dy":0.0017,"dx":0.0017,"nx":28,"ny":28,"refTime":"2024-07-07T09:00:00:Z","depth":"4","parameterNumber":2,"parameterNumberName":"U-component_of_CURRENTS"},"data":[0,0,0,0,0,0,0,0,0,0,0,0,0,0,0,0,0,0,0,0,0,0,0,0,0,0,0,0,0,0,0,0,0,0,0,0,0,0,0,0,0,0,0,0,0,0,0,0,0,0,0,0,0,0,0,0,0,0,-0.1484,-0.1484,0,-0.1525,-0.1526,-0.1526,-0.1562,-0.1562,-0.1562,-0.1562,-0.1614,-0.1615,-0.1616,0,0,0,0,0,0,0,0,0,0,0,0,0,-0.1443,-0.1444,-0.1484,-0.1484,-0.1485,-0.1525,-0.1526,-0.1527,-0.1562,-0.1562,-0.1562,-0.1562,-0.1613,-0.1615,-0.1616,0,0,0,0,0,0,0,0,0,0,0,0,0,-0.1472,-0.1444,-0.1484,-0.1505,-0.1507,-0.1525,-0.1526,-0.1527,-0.1562,-0.1562,-0.1562,-0.1562,-0.1613,-0.1614,-0.1616,-0.1622,0,0,-0.1622,-0.1623,0,0,0,0,0,0,0,0,-0.1471,-0.1474,-0.1502,-0.1504,-0.1506,-0.1536,-0.153,-0.1558,-0.1562,-0.1544,-0.1562,-0.1563,-0.1587,-0.1591,-0.1601,-0.1625,-0.1627,-0.1622,-0.1623,-0.1624,-0.1624,0,0,0,0,0,0,0,-0.1469,-0.1473,-0.1503,-0.1502,-0.1505,-0.1515,-0.152,-0.1536,-0.1565,-0.1545,-0.1547,-0.1548,-0.1589,-0.16,-0.1603,-0.1628,-0.1622,-0.1623,-0.1625,-0.1625,-0.1665,-0.1664,0,0,0,0,0,0,-0.1458,-0.1471,-0.1501,-0.1504,-0.1486,-0.1515,-0.1521,-0.1528,-0.1565,-0.157,-0.1548,-0.1549,-0.1596,-0.1601,-0.1605,-0.1661,-0.1624,-0.1625,-0.1627,-0.1665,-0.1665,-0.1664,0,0,0,0,0,0,-0.1457,-0.1461,-0.15,-0.1486,-0.1491,-0.1515,-0.1524,-0.1529,-0.1566,-0.1566,-0.1572,-0.1582,-0.1597,-0.1602,-0.1623,-0.1661,-0.1626,-0.1628,-0.1665,-0.1665,-0.1664,-0.1744,0,0,0,0,0,0,-0.1456,-0.146,-0.1478,-0.1485,-0.1491,-0.1525,-0.1524,-0.153,-0.1563,-0.1567,-0.1597,-0.1601,-0.1597,-0.162,-0.1624,-0.1663,-0.1629,-0.1665,-0.1665,-0.1665,-0.1741,-0.1746,-0.1751,0,0,0,0,0,-0.1454,-0.1472,-0.1479,-0.1483,-0.151,-0.1525,-0.1531,-0.1549,-0.1565,-0.1585,-0.1593,-0.1601,-0.1622,-0.1621,-0.1627,-0.1667,-0.1665,-0.1665,-0.1665,-0.1739,-0.1745,-0.1751,0,0,0,0,0,0,-0.1463,-0.1477,-0.1485,-0.1507,-0.1522,-0.1531,-0.1554,-0.1567,-0.1592,-0.1604,-0.1605,-0.1609,-0.1638,-0.1632,-0.1631,-0.1671,-0.1644,-0.1645,-0.1698,-0.1704,-0.1709,-0.171,-0.1631,0,0,0,0,0,-0.1471,-0.1493,-0.1501,-0.1522,-0.1533,-0.1551,-0.1567,-0.158,-0.1593,-0.1608,-0.1622,-0.1631,-0.1637,-0.1656,-0.1655,-0.1688,-0.1665,-0.1712,-0.1717,-0.1721,-0.1722,-0.1713,-0.1718,-0.1664,-0.1664,-0.1664,0,0,-0.1481,-0.1491,-0.1504,-0.1526,-0.1543,-0.1562,-0.1563,-0.1595,-0.1619,-0.1608,-0.1651,-0.165,-0.1645,-0.1671,-0.1686,-0.168,-0.1722,-0.1721,-0.1726,-0.1723,-0.1714,-0.1719,-0.1724,-0.1664,-0.1664,-0.1664,0,0,-0.1491,-0.1521,-0.1535,-0.1552,-0.1578,-0.1592,-0.1607,-0.1631,-0.1655,-0.1681,-0.1677,-0.1693,-0.1712,-0.1717,-0.172,-0.1749,-0.174,-0.1758,-0.1803,-0.1796,-0.1801,-0.1805,-0.1779,-0.178,-0.1772,-0.1772,-0.1772,0,-0.1501,-0.152,-0.1542,-0.1557,-0.1579,-0.1609,-0.1631,-0.1658,-0.1685,-0.1706,-0.1701,-0.1728,-0.1729,-0.1763,-0.1771,-0.1766,-0.1752,-0.179,-0.1805,-0.1808,-0.1811,-0.1784,-0.1784,-0.1776,-0.1775,-0.1775,-0.1774,0,-0.1505,-0.1537,-0.1551,-0.1583,-0.1612,-0.1641,-0.1673,-0.1712,-0.1742,-0.1758,-0.1798,-0.1793,-0.1806,-0.1817,-0.1807,-0.184,-0.1819,-0.1807,-0.1798,-0.1822,-0.179,-0.179,-0.1781,-0.178,-0.1778,-0.1778,0,0,-0.1485,-0.1543,-0.1551,-0.1578,-0.1633,-0.1655,-0.1711,-0.1759,-0.1796,-0.1826,-0.1861,-0.1881,-0.1885,-0.1886,-0.1887,-0.1892,-0.19,-0.187,-0.1868,-0.1857,-0.1876,-0.1761,-0.1748,-0.1901,-0.1902,-0.1902,-0.1846,0,-0.1484,-0.152,-0.1554,-0.1608,-0.1635,-0.1693,-0.1737,-0.179,-0.1829,-0.1867,-0.1891,-0.1911,-0.1912,-0.1922,-0.1932,-0.1901,-0.1901,-0.1915,-0.1842,-0.1839,-0.1745,-0.1744,-0.1903,-0.1845,-0.1844,-0.1844,-0.1844,0,-0.1469,-0.1501,-0.1549,-0.1628,-0.1647,-0.1685,-0.1773,-0.1813,-0.1878,-0.1906,-0.1947,-0.1956,-0.1981,-0.1962,-0.1947,-0.196,-0.1924,-0.1899,-0.1896,-0.1759,-0.1721,-0.1813,-0.1841,-0.1842,-0.1842,-0.1842,-0.1842,0,-0.1434,-0.1502,-0.1547,-0.1572,-0.1658,-0.17,-0.1749,-0.1824,-0.1856,-0.1927,-0.1942,-0.1985,-0.1981,-0.1971,-0.1929,-0.1941,-0.1887,-0.1889,-0.1753,-0.1744,-0.1834,-0.183,-0.1867,-0.1867,-0.1867,-0.1867,-0.1867,0,-0.1411,-0.1452,-0.1536,-0.1559,-0.1616,-0.1683,-0.1739,-0.18,-0.1858,-0.1867,-0.1951,-0.1947,-0.1982,-0.196,-0.1932,-0.1828,-0.1887,-0.1749,-0.172,-0.1866,-0.1866,-0.1833,-0.183,-0.1865,-0.1866,-0.1866,-0.1866,0,-0.1363,-0.1421,-0.1475,-0.1569,-0.16,-0.1638,-0.1717,-0.1734,-0.1816,-0.1826,-0.1843,-0.1909,-0.1879,-0.1892,-0.1852,-0.1796,-0.173,-0.1679,-0.1821,-0.1803,-0.1594,-0.1595,-0.152,-0.1515,-0.1512,-0.1508,-0.1506,0,-0.134,-0.1363,-0.1465,-0.1483,-0.1526,-0.1585,-0.1606,-0.17,-0.1698,-0.1771,-0.1745,-0.177,-0.1791,-0.1645,-0.1689,-0.1631,-0.1613,-0.1572,-0.1598,-0.1578,-0.1558,-0.1566,-0.1572,-0.1499,-0.1498,-0.1497,-0.1496,0,-0.1289,-0.1335,-0.137,-0.1408,-0.1439,-0.1465,-0.1496,-0.1486,-0.1556,-0.1647,-0.1591,-0.1582,-0.1548,-0.1542,-0.1506,-0.147,-0.16,-0.1531,-0.1539,-0.1563,-0.1552,-0.1538,-0.1549,-0.1483,-0.1485,-0.1486,-0.1487,0,-0.1244,-0.1249,-0.1289,-0.1307,-0.134,-0.1313,-0.1356,-0.133,-0.1351,-0.1425,-0.1396,-0.1441,-0.1503,-0.1455,-0.1422,-0.1382,-0.1368,-0.1324,-0.1343,-0.1359,-0.1337,-0.1301,-0.1118,0,0,0,0,0,-0.1188,-0.1169,-0.1176,-0.1176,-0.1196,-0.1211,-0.1257,-0.1293,-0.1359,-0.1267,-0.1326,-0.1289,-0.126,-0.1304,-0.1228,-0.1366,-0.1383,-0.1274,-0.1346,-0.1408,-0.1424,-0.1417,0,0,0,0,0,0,-0.1145,-0.1153,-0.1138,-0.1052,-0.1019,-0.1021,-0.1045,-0.1095,-0.1053,-0.1136,-0.1129,-0.1198,-0.1197,-0.1267,-0.1194,-0.1204,-0.122,-0.1313,-0.1309,-0.1399,-0.1413,-0.1426,-0.1424,0,0,0,0,0]},{"header":{"parameterUnit":"m.s-1","parameterCategory":2,"la1":30.2991,"la2":30.254,"lo1":-89.0895,"lo2":-89.0444,"dy":0.0017,"dx":0.0017,"nx":28,"ny":28,"refTime":"2024-07-07T09:00:00:Z","depth":"4","parameterNumber":3,"parameterNumberName":"V-component_of_CURRENTS"},"data":[0,0,0,0,0,0,0,0,0,0,0,0,0,0,0,0,0,0,0,0,0,0,0,0,0,0,0,0,0,0,0,0,0,0,0,0,0,0,0,0,0,0,0,0,0,0,0,0,0,0,0,0,0,0,0,0,0,0,-0.0275,-0.0275,0,-0.0243,-0.0242,-0.0242,-0.0215,-0.0215,-0.0215,-0.0215,-0.014,-0.0138,-0.0136,0,0,0,0,0,0,0,0,0,0,0,0,0,-0.0292,-0.0292,-0.0275,-0.0275,-0.0275,-0.0243,-0.0242,-0.0242,-0.0215,-0.0215,-0.0215,-0.0215,-0.014,-0.0138,-0.0136,0,0,0,0,0,0,0,0,0,0,0,0,0,-0.0274,-0.0292,-0.0276,-0.0259,-0.0257,-0.0243,-0.0242,-0.0242,-0.0215,-0.0215,-0.0215,-0.0215,-0.0141,-0.0138,-0.0136,-0.0123,0,0,-0.0127,-0.0126,0,0,0,0,0,0,0,0,-0.0275,-0.0273,-0.0262,-0.026,-0.0258,-0.0234,-0.0221,-0.02,-0.0215,-0.023,-0.0215,-0.0214,-0.0168,-0.0163,-0.0156,-0.012,-0.0116,-0.0127,-0.0125,-0.0124,-0.0123,0,0,0,0,0,0,0,-0.0276,-0.0274,-0.0261,-0.0261,-0.0259,-0.0245,-0.0242,-0.0217,-0.0199,-0.0228,-0.0227,-0.0225,-0.0167,-0.0159,-0.0154,-0.0115,-0.0127,-0.0124,-0.0123,-0.0122,-0.0069,-0.0069,0,0,0,0,0,0,-0.0284,-0.0275,-0.0262,-0.026,-0.0267,-0.0245,-0.0242,-0.0241,-0.02,-0.0194,-0.0226,-0.0224,-0.0164,-0.0158,-0.0152,-0.0118,-0.0124,-0.0121,-0.012,-0.0069,-0.0069,-0.0069,0,0,0,0,0,0,-0.0285,-0.0283,-0.0264,-0.0268,-0.0265,-0.0246,-0.0244,-0.024,-0.0236,-0.0199,-0.0192,-0.0226,-0.0164,-0.0155,-0.0134,-0.0116,-0.012,-0.0118,-0.0069,-0.0069,-0.0069,-0.0061,0,0,0,0,0,0,-0.0285,-0.0284,-0.0291,-0.0269,-0.0265,-0.0259,-0.0245,-0.024,-0.0236,-0.0234,-0.0196,-0.0189,-0.0163,-0.0138,-0.0131,-0.0112,-0.0115,-0.0068,-0.0069,-0.0069,-0.0061,-0.0062,-0.0062,0,0,0,0,0,-0.0286,-0.0293,-0.0292,-0.029,-0.0274,-0.026,-0.0256,-0.0241,-0.0236,-0.0236,-0.0213,-0.019,-0.0136,-0.0136,-0.0128,-0.0107,-0.0068,-0.0069,-0.0069,-0.0061,-0.0062,-0.0062,0,0,0,0,0,0,-0.0302,-0.0291,-0.0288,-0.0292,-0.028,-0.0256,-0.0256,-0.0247,-0.0229,-0.0228,-0.0192,-0.0183,-0.0161,-0.0143,-0.0143,-0.0098,-0.0099,-0.0098,-0.0096,-0.0096,-0.0096,-0.0093,-0.0113,0,0,0,0,0,-0.0311,-0.0318,-0.0299,-0.0305,-0.0299,-0.028,-0.0275,-0.0265,-0.0245,-0.0237,-0.021,-0.0184,-0.0157,-0.0134,-0.0116,-0.0085,-0.0051,-0.007,-0.007,-0.007,-0.0064,0.0009,0.0017,-0.0071,-0.0071,-0.0071,0,0,-0.032,-0.0316,-0.032,-0.031,-0.03,-0.0292,-0.0276,-0.0271,-0.0261,-0.0231,-0.0212,-0.0189,-0.0154,-0.0123,-0.011,-0.0101,-0.003,-0.0071,-0.007,-0.0064,0.001,0.0019,0.0027,-0.0072,-0.0072,-0.0072,0,0,-0.0337,-0.0336,-0.0343,-0.0336,-0.0325,-0.031,-0.0311,-0.0288,-0.0274,-0.0257,-0.023,-0.0192,-0.0163,-0.0116,-0.0093,-0.0083,-0.0043,-0.0088,-0.0066,0.0004,0.0013,0.0021,0.0067,0.0079,-0.0074,-0.0074,-0.0074,0,-0.0351,-0.0354,-0.0343,-0.0344,-0.0342,-0.0319,-0.0321,-0.0299,-0.0274,-0.0255,-0.0255,-0.0185,-0.0152,-0.0088,-0.0083,-0.0077,-0.0047,-0.0064,0.0008,0.0016,0.0025,0.0069,0.0083,-0.0074,-0.0074,-0.0074,-0.0074,0,-0.0365,-0.0371,-0.0373,-0.0367,-0.0363,-0.0362,-0.0334,-0.0321,-0.0304,-0.0275,-0.0226,-0.0175,-0.0128,-0.0108,-0.0088,-0.0014,-0.0016,-0.0008,0.0015,0.0035,0.0079,0.0093,-0.0073,-0.0074,-0.0074,-0.0074,0,0,-0.0386,-0.0385,-0.0386,-0.0395,-0.0377,-0.0378,-0.0356,-0.0324,-0.031,-0.0262,-0.0226,-0.0153,-0.0121,-0.0093,-0.0052,0.0022,0.0111,0.0032,0.0036,0.0088,0.025,0.0197,0.0207,0.0132,0.0134,0.0136,0.0255,0,-0.0401,-0.0417,-0.0407,-0.0422,-0.0426,-0.0402,-0.0388,-0.0357,-0.0322,-0.028,-0.0194,-0.0155,-0.0116,-0.0094,-0.0008,0.0075,0.0148,0.0077,0.0213,0.0217,0.0178,0.0223,0.0145,0.0265,0.0269,0.0271,0.0273,0,-0.0412,-0.0426,-0.0445,-0.0456,-0.0456,-0.0461,-0.0442,-0.0426,-0.035,-0.032,-0.0242,-0.0186,-0.0067,-0.0051,0.0136,0.0085,0.0166,0.0236,0.0243,0.0203,0.019,0.0242,0.0298,0.0296,0.0294,0.0293,0.0291,0,-0.0437,-0.0451,-0.0474,-0.0478,-0.048,-0.0487,-0.0487,-0.0438,-0.0429,-0.0343,-0.0322,-0.0179,-0.0115,0.0023,0.0167,0.0156,0.0361,0.0364,0.0396,0.0392,0.0401,0.0391,0.0495,0.0495,0.0495,0.0494,0.0494,0,-0.045,-0.047,-0.0495,-0.0509,-0.0547,-0.0531,-0.055,-0.0524,-0.048,-0.0463,-0.035,-0.0293,-0.0093,0.0042,0.0172,0.0325,0.037,0.0411,0.0429,0.0397,0.0385,0.0411,0.0399,0.0499,0.0498,0.0497,0.0496,0,-0.0465,-0.0475,-0.0515,-0.0543,-0.0561,-0.059,-0.062,-0.0623,-0.0577,-0.0549,-0.0526,-0.036,-0.0172,0.0013,0.0247,0.0316,0.0473,0.051,0.0453,0.0464,0.0455,0.0443,0.0568,0.0568,0.0567,0.0567,0.0566,0,-0.047,-0.0491,-0.0556,-0.0597,-0.0618,-0.0663,-0.0692,-0.0676,-0.0674,-0.0587,-0.0567,-0.0388,-0.0263,0.0045,0.0231,0.0472,0.0491,0.0544,0.0517,0.0463,0.0469,0.0457,0.0445,0.0565,0.0565,0.0565,0.0565,0,-0.0491,-0.0519,-0.0558,-0.0645,-0.07,-0.0752,-0.0788,-0.0794,-0.0758,-0.0723,-0.0581,-0.0417,-0.0206,0.0046,0.0224,0.0394,0.0498,0.0538,0.0541,0.0516,0.0461,0.0464,0.0453,0.0563,0.0563,0.0564,0.0564,0,-0.0515,-0.0556,-0.0618,-0.0691,-0.0765,-0.0816,-0.083,-0.0809,-0.0795,-0.0694,-0.064,-0.0404,-0.0252,0.0005,0.0176,0.0333,0.0366,0.0378,0.0389,0.0393,0.0295,0.0197,0.0248,0,0,0,0,0,-0.0538,-0.0591,-0.0662,-0.0746,-0.0815,-0.0853,-0.0883,-0.0878,-0.0844,-0.0754,-0.0697,-0.0496,-0.0214,-0.0062,0.0091,0.0146,0.0371,0.0321,0.0384,0.0553,0.0555,0.0464,0,0,0,0,0,0,-0.0562,-0.063,-0.0667,-0.0771,-0.083,-0.0902,-0.0919,-0.0894,-0.0824,-0.0758,-0.0576,-0.0504,-0.0194,-0.029,0.0087,0.0135,0.0179,0.0466,0.0467,0.0551,0.0553,0.0555,0.0463,0,0,0,0,0]}]]